{"data":{"norad_id":59782,"epoch":"2026-05-25T00:09:41.060736Z","epoch_age_seconds":67740,"freshness":"FRESH","line1":"1 59782U 24093A   26145.00672524  .00000328  00000+0  21448-4 0  9998","line2":"2 59782  43.0007 134.6935 0001203 275.5738  84.4976 15.27576075114404","mean_motion":15.27576075,"eccentricity":0.0001203,"inclination_deg":43.0007,"raan_deg":134.6935,"arg_perigee_deg":275.5738,"mean_anomaly_deg":84.4976,"bstar":2.1448e-5,"rev_number":11440,"period_min":94.266990925476,"perigee_km":482.2354468256,"apogee_km":483.88625102806,"semimajor_km":6861.1978489268,"source":"CELESTRAK","updated_at":"2026-05-25T13:38:19.079932Z"}}